Location: *
(49.7115°N, 15.0136°E)
Time: 09:40:26
(UTC+00:00)

SL-08 RB Rocket - Pass Details

Date: 27 February 2020
Orbit: 648 x 683 km, 97.8° (Epoch: 09 April)

Event Time Altitude Azimuth Distance (km) Brightness Sun altitude
Exits shadow 18:04:29 23° 111° (ESE) 1,392 4.8 -14.7°
Maximum altitude 18:06:28 33° 66° (ENE) 1,092 4.3 -15.0°
Drops below altitude 10° 18:10:29 10° 3° (N) 2,064 6.3 -15.7°
Sets 18:12:51 0° 354° (N) 2,978 7.2 -16.1°
